Printer-friendly version

IAU Minor Planet Center

Minor Planet Center

MPEC 2006-V14 : 2006 VJ

The following Minor Planet Electronic Circular may be linked-to from your own Web pages, but must not otherwise be redistributed electronically.


Read MPEC 2006-V13 Read MPEC 2006-V15


M.P.E.C. 2006-V14                                Issued 2006 Nov. 3, 17:17 UT

     The Minor Planet Electronic Circulars contain information on unusual
         minor planets and routine data on comets.  They are published
   on behalf of Commission 20 of the International Astronomical Union by the
          Minor Planet Center, Smithsonian Astrophysical Observatory,
                          Cambridge, MA 02138, U.S.A.

             Prepared using the Tamkin Foundation Computer Network

                              MPC@CFA.HARVARD.EDU
          URL http://cfa-www.harvard.edu/iau/mpc.html  ISSN 1523-6714

                                    2006 VJ

Observations:
     K06V00J* C2006 11 02.39451 03 05 33.64 +14 08 02.5          19.3 V EV014703
     K06V00J  C2006 11 02.39998 03 05 33.90 +14 07 31.5          18.7 V EV014703
     K06V00J  C2006 11 02.40545 03 05 34.22 +14 06 59.4          19.0 V EV014703
     K06V00J  C2006 11 02.41091 03 05 34.51 +14 06 26.5          18.6 V EV014703
     K06V00J  C2006 11 02.44546 03 05 36.14 +14 03 07.0          18.9 V EV014703
     K06V00J  C2006 11 02.44931 03 05 36.25 +14 02 45.7          18.8 V EV014703
     K06V00J  C2006 11 02.45317 03 05 36.49 +14 02 22.8          19.1 V EV014703
     K06V00J  C2006 11 02.45702 03 05 36.64 +14 01 59.5          18.6 V EV014703
     K06V00J  C2006 11 02.91754 03 06 07.45 +13 17 32.5                 EV014J95
     K06V00J  C2006 11 02.92541 03 06 07.76 +13 16 46.9                 EV014J95
     K06V00J  C2006 11 02.93367 03 06 08.19 +13 15 59.7          19.3 R EV014J95
     K06V00J  C2006 11 02.96874 03 06 09.31 +13 12 42.6          19.2 V EV014595
     K06V00J  C2006 11 02.97900 03 06 09.83 +13 11 41.9                 EV014595
     K06V00J  C2006 11 02.98568 03 06 10.15 +13 11 03.3          19.4 V EV014595
     K06V00J  C2006 11 03.02952 03 06 12.08 +13 06 50.9          18.9 R EV014473
     K06V00J  C2006 11 03.03390 03 06 12.31 +13 06 24.8          18.9 R EV014473

Observer details:
473 Remanzacco.  Observers G. Sostero, L. Donato.  0.45-m f/4.4 Newtonian
    reflector + CCD.
595 Farra d'Isonzo.  Observers G. Lombardi, E. Pettarin.  Measurer E. Pettarin.
    0.40-m f/4.5 reflector + CCD.
703 Catalina Sky Survey.  Observer S. M. Larson.  Measurers E. C. Beshore,
    E. J. Christensen, G. J. Garradd, A. R. Gibbs, A. D. Grauer, R. E. Hill,
    R. A. Kowalski, S. M. Larson, R. H. McNaught.  0.68-m Schmidt + CCD.
J95 Great Shefford.  Observer P. Birtwhistle.  0.40-m f/6.0 Schmidt-Cassegrain
    + CCD.

Orbital elements:
2006 VJ                                                  Earth MOID = 0.1846 AU
Epoch 2006 Sept. 22.0 TT = JDT 2454000.5                MPC
M 331.62101              (2000.0)            P               Q
n   0.55121029     Peri.  190.23614     +0.65247998     -0.73365793
a   1.4731869      Node   219.42379     +0.71468821     +0.67901586
e   0.2028403      Incl.   17.38793     +0.25197349     -0.02614371
P   1.79           H   21.8           G   0.15           U   8
Residuals in seconds of arc
061102 703  1.1-  0.1-    061102 703  0.7+  0.3+    061102 595  0.3+  0.7-
061102 703  0.9-  0.5+    061102 703  0.2+  0.6-    061102 595  0.6+  0.7-
061102 703  0.2+  0.1+    061102 J95  0.7+  0.1+    061103 473  0.4-  0.5+
061102 703  0.8+  1.1-    061102 J95  0.4-  0.2-    061103 473  0.1+  0.3-
061102 703  1.0+  0.2-    061102 J95  0.1+  0.1+
061102 703  0.1-  0.8+    061102 595  0.5-  0.8+

Ephemeris:
2006 VJ                  a,e,i = 1.47, 0.20, 17                  q = 1.1744
Date    TT    R. A. (2000) Decl.     Delta      r     Elong.  Phase     V
2006 11 01    03 04.15   +16 21.7    0.187    1.177   170.1     8.4    19.1
2006 11 11    03 13.19   +00 39.6    0.191    1.174   163.2    14.1    19.4
2006 11 21    03 20.27   -11 58.5    0.216    1.176   147.6    26.7    20.0
2006 12 01    03 27.13   -19 56.7    0.254    1.182   135.8    35.6    20.6
2006 12 11    03 35.04   -24 03.7    0.300    1.192   127.5    40.9    21.2
2006 12 21    03 44.56   -25 30.4    0.350    1.205   121.7    43.9    21.6
2006 12 31    03 56.10   -25 09.8    0.402    1.223   117.6    45.5    22.0

Kyle E. Smalley              (C) Copyright 2006 MPC           M.P.E.C. 2006-V14

Read MPEC 2006-V13 Read MPEC 2006-V15


Our Web policy. Index to the CBAT/MPC/ICQ pages.


Valid HTML 4.01!